Meteo Giornale » Osservazioni meteo Egitto » Cairo

ore: 11:00 - Osservazioni Meteo Cairo
Lat. 30° 8' N Lon. 31° 24' E Alt. 64 metri s.l.m.

nuvoloso Africa/Cairo

18 °C

Nuvoloso

Temp. 24 Ore

13 °C

22 °C

Nord-Est

22.2 Km/h

Dew point 12 °C

Umidità 67 %

Visibilità  10 Km

Il sole sorge alle ore 06:22

Il sole tramonta alle ore 17:51

Data e Ora Cielo e Fenomeni T °C DP °C Um. % Pres. hPa Vis. km Vento km/h
Oggi h: 11:00 nuvoloso Nuvoloso 18 12 67 1024 10 NE 22.2
Oggi h: 10:30 nuvoloso Nuvoloso 18 12 67 1025 10 NE 20.3
Oggi h: 10:00 nuvoloso Nuvoloso 16 13 82 1025 10 NE 14.8
Oggi h: 09:00 molto_nuvoloso Molto Nuvoloso 14 14 100 1025 6 NE 22.2
Oggi h: 08:30 foschia Foschia 14 14 100 1025 4 N/NE 18.5
Oggi h: 08:00 foschia Foschia 13 13 100 1024 2 N/NE 14.8
Oggi h: 07:30 foschia Foschia 13 13 100 1024 1 N/NE 14.8
Oggi h: 07:00 foschia Foschia 13 13 100 1024 1 N/NE 7.4
Oggi h: 06:30 foschia Foschia 13 13 100 1024 2 N 9.3
Oggi h: 06:00 foschia Foschia 13 13 100 1024 2 N 11.1
Oggi h: 05:30 foschia Foschia 13 13 100 1024 3 N/NE 11.1
Oggi h: 05:00 foschia Foschia 13 12 93 1023 3 E/NE 13
Oggi h: 04:30 foschia Foschia 13 13 100 1023 3 NE 11.1
Oggi h: 04:00 sereno Sereno 13 12 93 1023 6 NE 11.1
Oggi h: 03:30 sereno Sereno 13 12 93 1023 6 N/NE 11.1
Oggi h: 03:00 sereno Sereno 13 12 93 1023 6 NE 11.1
Oggi h: 02:30 sereno Sereno 14 12 87 1023 6 NE 9.3
Oggi h: 02:00 sereno Sereno 14 13 93 1024 10 N/NE 16.7
Oggi h: 01:30 sereno Sereno 14 12 87 1024 10 N/NE 13
Oggi h: 01:00 sereno Sereno 14 12 87 1024 10 N/NE 16.7
Oggi h: 00:30 sereno Sereno 15 13 87 1024 10 N/NE 14.8
Oggi h: 00:00 sereno Sereno 15 12 82 1024 10 N/NE 18.5
Ieri h: 23:30 sereno Sereno 15 12 82 1024 10 NE 18.5
Ieri h: 23:00 sereno Sereno 15 12 82 1024 10 NE 18.5
Ieri h: 22:30 sereno Sereno 16 12 77 1024 10 N/NE 18.5
Ieri h: 22:00 sereno Sereno 16 12 77 1024 10 N/NE 18.5
Ieri h: 21:00 sereno Sereno 17 11 67 1024 10 N/NE 22.2
Ieri h: 20:30 sereno Sereno 17 11 67 1024 10 N/NE 22.2
Ieri h: 20:00 sereno Sereno 18 11 63 1023 10 N/NE 22.2
Ieri h: 19:30 sereno Sereno 18 11 63 1023 10 N/NE 25.9
Ieri h: 19:00 sereno Sereno 19 11 59 1023 10 N/NE 22.2
Ieri h: 18:30 sereno Sereno 19 11 59 1022 10 N 24
Ieri h: 18:00 sereno Sereno 20 11 56 1022 10 N 24
Ieri h: 17:30 sereno Sereno 21 9 46 1022 10 N/NE 24
Ieri h: 17:00 sereno Sereno 22 9 43 1022 10 N/NE 24
Ieri h: 16:30 poco_nuvoloso Poco Nuvoloso 22 9 43 1022 10 N/NE 24
Ieri h: 16:00 poco_nuvoloso Poco Nuvoloso 22 9 43 1021 10 NE 22.2
Ieri h: 15:30 poco_nuvoloso Poco Nuvoloso 22 9 43 1022 10 NE 18.5
Ieri h: 15:00 poco_nuvoloso Poco Nuvoloso 22 9 43 1022 10 NE 20.3
Ieri h: 14:30 poco_nuvoloso Poco Nuvoloso 22 9 43 1022 10 N/NE 18.5
Ieri h: 14:00 poco_nuvoloso Poco Nuvoloso 22 10 46 1022 10 N/NE 20.3
Ieri h: 13:30 poco_nuvoloso Poco Nuvoloso 21 10 49 1022 10 N/NE 22.2
Ieri h: 13:00 poco_nuvoloso Poco Nuvoloso 20 10 52 1023 10 NE 22.2
Ieri h: 12:30 poco_nuvoloso Poco Nuvoloso 20 11 56 1023 10 NE 24
Ieri h: 12:00 nuvoloso Nuvoloso 19 10 55 1024 10 NE 25.9
Ieri h: 11:00 nuvoloso Nuvoloso 18 11 63 1024 10 NE 27.8